[[{"header":{"parameterUnit":"m.s-1","parameterCategory":1,"la1":30.2991,"la2":30.254,"lo1":-89.0895,"lo2":-89.0444,"dy":0.0017,"dx":0.0017,"nx":28,"ny":28,"refTime":"2026-02-08T03:00:00:Z","depth":0,"parameterNumber":2,"parameterNumberName":"U-component_of_WINDS"},"data":[0,0,0,0,0,0,0,0,0,0,0,0,0,0,0,0,0,0,0,0,0,0,0,0,0,0,0,0,0,0,0,0,0,0,0,0,0,0,0,0,0,0,0,0,0,0,0,0,0,0,0,0,0,0,0,0,0,0,-1.943,-1.943,0,-1.9423,-1.9423,-1.9423,-1.9359,-1.9358,-1.9356,-1.9354,-1.9349,-1.935,-1.9351,0,0,0,0,0,0,0,0,0,0,0,0,0,-1.939,-1.9391,-1.943,-1.943,-1.943,-1.9423,-1.9423,-1.9423,-1.9359,-1.9357,-1.9356,-1.9354,-1.9348,-1.935,-1.9351,0,0,0,0,0,0,0,0,0,0,0,0,0,-1.9398,-1.9391,-1.943,-1.9398,-1.9394,-1.9423,-1.9423,-1.9423,-1.936,-1.9357,-1.9355,-1.9353,-1.9348,-1.935,-1.9352,-1.9412,0,0,-1.9358,-1.9359,0,0,0,0,0,0,0,0,-1.9397,-1.9399,-1.9402,-1.94,-1.9396,-1.939,-1.9407,-1.9419,-1.936,-1.9373,-1.9354,-1.9352,-1.9364,-1.9365,-1.9369,-1.9412,-1.9411,-1.9358,-1.9359,-1.936,-1.9361,0,0,0,0,0,0,0,-1.9397,-1.9399,-1.9428,-1.9403,-1.9399,-1.9384,-1.9382,-1.9409,-1.9382,-1.9372,-1.9367,-1.9367,-1.9362,-1.9367,-1.9368,-1.9411,-1.9358,-1.936,-1.9361,-1.9362,-1.9504,-1.9506,0,0,0,0,0,0,-1.9401,-1.9399,-1.9428,-1.9427,-1.9391,-1.9386,-1.9385,-1.9394,-1.9382,-1.9378,-1.9369,-1.9364,-1.9365,-1.9366,-1.9368,-1.9437,-1.936,-1.9362,-1.9363,-1.9501,-1.9504,-1.9507,0,0,0,0,0,0,-1.94,-1.9404,-1.9428,-1.9412,-1.9414,-1.9389,-1.9401,-1.9395,-1.94,-1.938,-1.9375,-1.9379,-1.9363,-1.9365,-1.9401,-1.9436,-1.9363,-1.9365,-1.9498,-1.9502,-1.9506,-1.9578,0,0,0,0,0,0,-1.9399,-1.9404,-1.9426,-1.9413,-1.9415,-1.9462,-1.9403,-1.9397,-1.9404,-1.9397,-1.9387,-1.9384,-1.9361,-1.9399,-1.9403,-1.9438,-1.9366,-1.9495,-1.95,-1.9504,-1.9572,-1.9583,-1.9593,0,0,0,0,0,-1.9398,-1.9447,-1.9428,-1.9432,-1.9442,-1.9464,-1.9465,-1.9438,-1.9407,-1.9429,-1.9416,-1.9384,-1.9432,-1.9403,-1.9408,-1.9443,-1.9493,-1.9499,-1.9504,-1.9567,-1.9581,-1.9593,0,0,0,0,0,0,-1.9466,-1.9445,-1.9423,-1.9469,-1.9469,-1.9453,-1.948,-1.9453,-1.9462,-1.9455,-1.9422,-1.942,-1.9462,-1.9456,-1.9424,-1.9501,-1.9457,-1.9464,-1.9503,-1.9516,-1.9527,-1.9527,-1.9368,0,0,0,0,0,-1.9486,-1.9504,-1.9485,-1.9528,-1.9529,-1.9505,-1.9513,-1.9492,-1.949,-1.949,-1.948,-1.948,-1.9495,-1.9505,-1.9518,-1.9571,-1.9568,-1.9598,-1.9609,-1.9618,-1.9624,-1.9652,-1.9665,-1.9526,-1.9526,-1.9526,0,0,-1.9528,-1.9519,-1.9533,-1.9541,-1.9538,-1.9559,-1.9505,-1.9529,-1.9544,-1.9494,-1.9527,-1.952,-1.9518,-1.9563,-1.9582,-1.956,-1.9662,-1.9625,-1.9632,-1.9634,-1.9659,-1.9672,-1.9684,-1.953,-1.9529,-1.9529,0,0,-1.9615,-1.961,-1.9645,-1.9643,-1.9639,-1.9623,-1.9631,-1.962,-1.9613,-1.9646,-1.9609,-1.9627,-1.9653,-1.9653,-1.9657,-1.9745,-1.9715,-1.975,-1.9805,-1.9833,-1.9844,-1.9853,-1.9884,-1.9896,-1.9756,-1.9756,-1.9756,0,-1.9667,-1.9696,-1.9666,-1.9692,-1.9698,-1.9653,-1.9688,-1.9688,-1.9689,-1.9694,-1.9668,-1.9701,-1.9696,-1.9741,-1.9763,-1.9767,-1.9776,-1.975,-1.9844,-1.9854,-1.9862,-1.9892,-1.9904,-1.9761,-1.976,-1.976,-1.9759,0,-1.9761,-1.9782,-1.9811,-1.9812,-1.9821,-1.9852,-1.9827,-1.9839,-1.9818,-1.9805,-1.9839,-1.9832,-1.9843,-1.9852,-1.9832,-1.9894,-1.988,-1.985,-1.9805,-1.988,-1.9907,-1.9918,-1.9767,-1.9765,-1.9764,-1.9763,0,0,-1.989,-1.9875,-1.9886,-1.9886,-1.9879,-1.9894,-1.9924,-1.9934,-1.9945,-1.9947,-1.9971,-1.9995,-1.9967,-1.9972,-1.9951,-1.9975,-2.0045,-1.9942,-1.9942,-1.9961,-2.0114,-2.0136,-2.015,-2.0026,-2.0028,-2.003,-2.0114,0,-1.9973,-2.0021,-1.9995,-2.0047,-2.0066,-2.0025,-2.005,-2.0049,-2.0038,-2.0052,-2.004,-2.0057,-2.002,-2.0022,-2.0044,-2.0032,-2.0075,-2.0026,-2.0048,-2.005,-2.005,-2.0164,-2.0187,-2.0267,-2.0124,-2.0126,-2.0128,0,-2.0077,-2.0083,-2.0137,-2.0126,-2.0133,-2.0157,-2.0164,-2.0179,-2.0177,-2.0167,-2.0172,-2.0145,-2.0174,-2.013,-2.0169,-2.0135,-2.0143,-2.0139,-2.0141,-2.0142,-2.0093,-2.0167,-2.0292,-2.0304,-2.0144,-2.0143,-2.0141,0,-2.0165,-2.0187,-2.0222,-2.0224,-2.0212,-2.023,-2.0226,-2.0222,-2.0229,-2.0236,-2.0241,-2.0251,-2.0257,-2.0266,-2.0243,-2.0213,-2.0286,-2.0239,-2.0278,-2.0279,-2.0295,-2.0294,-2.0422,-2.0301,-2.0301,-2.0301,-2.03,0,-2.026,-2.0295,-2.0261,-2.0283,-2.0321,-2.0291,-2.0329,-2.0321,-2.0318,-2.0337,-2.0302,-2.0322,-2.0291,-2.0307,-2.029,-2.0325,-2.0328,-2.0321,-2.0316,-2.0324,-2.0325,-2.0328,-2.0322,-2.0304,-2.0303,-2.0303,-2.0302,0,-2.0365,-2.0344,-2.0379,-2.0366,-2.0363,-2.0392,-2.038,-2.04,-2.0386,-2.0412,-2.0416,-2.0395,-2.0413,-2.0391,-2.0407,-2.0396,-2.0443,-2.043,-2.0444,-2.044,-2.048,-2.0477,-2.0614,-2.0631,-2.05,-2.0501,-2.0502,0,-2.0427,-2.0453,-2.0442,-2.0452,-2.045,-2.0468,-2.0475,-2.0447,-2.0457,-2.0457,-2.0477,-2.0492,-2.0502,-2.0532,-2.0519,-2.0531,-2.0518,-2.0565,-2.0519,-2.0526,-2.0518,-2.0517,-2.0519,-2.0574,-2.0576,-2.0577,-2.0578,0,-2.054,-2.0528,-2.054,-2.0549,-2.0559,-2.0565,-2.0568,-2.0579,-2.055,-2.0562,-2.058,-2.0588,-2.0604,-2.0619,-2.0627,-2.0624,-2.0597,-2.0593,-2.0603,-2.0611,-2.0617,-2.0614,-2.0469,-2.059,-2.0589,-2.0588,-2.0587,-2.0587,-2.0625,-2.0645,-2.0641,-2.0656,-2.0655,-2.0659,-2.0677,-2.0666,-2.0679,-2.069,-2.0673,-2.0695,-2.0693,-2.0701,-2.0701,-2.0719,-2.0698,-2.0712,-2.0716,-2.072,-2.0726,-2.0615,-2.072,-2.072,-2.0719,-2.0719,-2.0719,0,-2.0735,-2.073,-2.0744,-2.075,-2.0762,-2.0734,-2.0737,-2.0748,-2.0768,-2.0768,-2.0779,-2.0799,-2.0814,-2.0802,-2.0814,-2.083,-2.0818,-2.0834,-2.0833,-2.0832,-2.0743,-2.0733,-2.0844,-2.0844,-2.0844,-2.0844,-2.0844,-2.0844,-2.0794,-2.0828,-2.0816,-2.0849,-2.0844,-2.0865,-2.0868,-2.0872,-2.0872,-2.0896,-2.0907,-2.0899,-2.0895,-2.0907,-2.0919,-2.0915,-2.0921,-2.0942,-2.0934,-2.0851,-2.0839,-2.0827,-2.0817,-2.0944,-2.0944,-2.1022,-2.1022,-2.1023]},{"header":{"parameterUnit":"m.s-1","parameterCategory":1,"la1":30.2991,"la2":30.254,"lo1":-89.0895,"lo2":-89.0444,"dy":0.0017,"dx":0.0017,"nx":28,"ny":28,"refTime":"2026-02-08T03:00:00:Z","depth":0,"parameterNumber":3,"parameterNumberName":"V-component_of_WINDS"},"data":[0,0,0,0,0,0,0,0,0,0,0,0,0,0,0,0,0,0,0,0,0,0,0,0,0,0,0,0,0,0,0,0,0,0,0,0,0,0,0,0,0,0,0,0,0,0,0,0,0,0,0,0,0,0,0,0,0,0,1.0353,1.0353,0,1.0364,1.0364,1.0365,1.04,1.0401,1.0402,1.0403,1.0412,1.0412,1.0412,0,0,0,0,0,0,0,0,0,0,0,0,0,1.036,1.036,1.0353,1.0353,1.0353,1.0364,1.0364,1.0365,1.04,1.0401,1.0402,1.0403,1.0413,1.0412,1.0411,0,0,0,0,0,0,0,0,0,0,0,0,0,1.0363,1.036,1.0353,1.0372,1.0374,1.0364,1.0364,1.0365,1.04,1.0401,1.0402,1.0403,1.0413,1.0412,1.0411,1.0383,0,0,1.0409,1.0409,0,0,0,0,0,0,0,0,1.0363,1.0363,1.0369,1.0371,1.0373,1.0382,1.0371,1.0371,1.04,1.039,1.0403,1.0404,1.0401,1.0402,1.0401,1.0384,1.0384,1.0409,1.0409,1.0408,1.0408,0,0,0,0,0,0,0,1.0362,1.0362,1.0357,1.0369,1.0371,1.038,1.0382,1.0371,1.0389,1.0391,1.0394,1.0395,1.0402,1.0402,1.0402,1.0384,1.0409,1.0409,1.0408,1.0408,1.0346,1.0344,0,0,0,0,0,0,1.036,1.0362,1.0357,1.0358,1.0371,1.0379,1.0381,1.0378,1.0389,1.0392,1.0394,1.0396,1.0402,1.0402,1.0402,1.0371,1.0408,1.0408,1.0407,1.0347,1.0345,1.0344,0,0,0,0,0,0,1.036,1.0359,1.0356,1.036,1.0361,1.0377,1.0374,1.0377,1.0377,1.0391,1.0394,1.0389,1.0403,1.0403,1.0388,1.0371,1.0407,1.0407,1.0348,1.0346,1.0345,1.0307,0,0,0,0,0,0,1.036,1.0359,1.0348,1.036,1.036,1.0342,1.0373,1.0377,1.0376,1.0379,1.0388,1.0391,1.0404,1.0389,1.0387,1.0371,1.0406,1.035,1.0347,1.0345,1.031,1.0304,1.0299,0,0,0,0,0,1.036,1.0336,1.0347,1.0347,1.0348,1.0341,1.0341,1.0358,1.0374,1.0364,1.0373,1.039,1.0374,1.0387,1.0386,1.0369,1.0351,1.0348,1.0345,1.0312,1.0305,1.0299,0,0,0,0,0,0,1.0321,1.0338,1.0351,1.033,1.0334,1.0347,1.0334,1.035,1.0349,1.0352,1.0372,1.0374,1.0356,1.0361,1.0376,1.0343,1.0365,1.0362,1.034,1.0334,1.0329,1.0328,1.0406,0,0,0,0,0,1.031,1.0304,1.0319,1.03,1.0301,1.0317,1.0315,1.0328,1.0332,1.0334,1.0342,1.0345,1.0341,1.0338,1.0334,1.0311,1.0313,1.0299,1.0293,1.0289,1.0286,1.0275,1.0268,1.0335,1.0335,1.0335,0,0,1.0287,1.0296,1.0291,1.0292,1.0296,1.0289,1.0318,1.0309,1.0304,1.0332,1.0319,1.0325,1.033,1.0311,1.0303,1.0315,1.0268,1.0285,1.0282,1.0281,1.0271,1.0265,1.0259,1.0333,1.0333,1.0334,0,0,1.0242,1.0248,1.0233,1.0238,1.0245,1.0256,1.0252,1.0263,1.0269,1.0256,1.0278,1.0272,1.0264,1.0267,1.0267,1.0225,1.0241,1.0224,1.0196,1.0185,1.0179,1.0175,1.0161,1.0155,1.0221,1.022,1.022,0,1.0213,1.0204,1.0223,1.0213,1.0214,1.024,1.0225,1.0228,1.0233,1.0233,1.0246,1.0237,1.0242,1.0225,1.0215,1.0214,1.0211,1.0222,1.0179,1.0174,1.017,1.0157,1.0151,1.0218,1.0219,1.0219,1.0219,0,1.0168,1.0161,1.0148,1.0154,1.0152,1.014,1.0157,1.0154,1.0167,1.0177,1.0164,1.0172,1.0171,1.0168,1.018,1.0152,1.0159,1.0175,1.0198,1.0162,1.0149,1.0144,1.0215,1.0216,1.0217,1.0217,0,0,1.0097,1.0115,1.011,1.0114,1.0124,1.0119,1.0108,1.0108,1.0105,1.0108,1.01,1.0093,1.0108,1.0109,1.0122,1.0112,1.0079,1.0129,1.013,1.012,1.005,1.0038,1.0032,1.009,1.0089,1.0089,1.005,0,1.0055,1.0038,1.0056,1.0035,1.003,1.0055,1.0046,1.0051,1.0061,1.0057,1.0067,1.0063,1.0083,1.0084,1.0075,1.0085,1.0066,1.0088,1.0083,1.0082,1.0081,1.0025,1.0012,0.9975,1.0045,1.0044,1.0044,0,1.0004,1.0006,0.9984,0.9998,0.9996,0.9987,0.999,0.9986,0.9993,1.0,1.0002,1.0018,1.0008,1.0031,1.0018,1.0033,1.0032,1.0037,1.0036,1.0036,1.0061,1.0024,0.9964,0.9958,1.0036,1.0037,1.0037,0,0.9955,0.9952,0.994,0.9942,0.9957,0.995,0.9956,0.9964,0.9963,0.9965,0.9965,0.9966,0.9966,0.9966,0.9982,0.9997,0.9967,0.9991,0.9973,0.9973,0.9966,0.9966,0.9905,0.9965,0.9965,0.9965,0.9965,0,0.9906,0.9892,0.9919,0.9911,0.9896,0.9917,0.9902,0.991,0.9918,0.9912,0.9934,0.9928,0.995,0.9946,0.9959,0.9947,0.9946,0.9952,0.9956,0.995,0.995,0.995,0.9953,0.9963,0.9964,0.9964,0.9964,0,0.985,0.9866,0.9855,0.987,0.9874,0.9862,0.9876,0.9869,0.988,0.9873,0.9872,0.989,0.9887,0.9904,0.9903,0.9912,0.9893,0.9901,0.9891,0.9894,0.9875,0.9877,0.9812,0.9805,0.9869,0.9868,0.9868,0,0.9817,0.9808,0.9823,0.9821,0.9826,0.9822,0.9822,0.9843,0.9842,0.985,0.9842,0.9842,0.9842,0.9836,0.9849,0.9849,0.9857,0.9834,0.9857,0.9852,0.9857,0.9858,0.9857,0.9829,0.9829,0.9828,0.9827,0,0.9759,0.9768,0.9767,0.977,0.977,0.9773,0.9777,0.9774,0.9796,0.9794,0.9792,0.9793,0.9793,0.9792,0.9795,0.9801,0.9818,0.982,0.9816,0.9811,0.9805,0.9809,0.9879,0.9821,0.9822,0.9823,0.9823,0.9823,0.9713,0.9706,0.9716,0.9715,0.9721,0.9725,0.972,0.9731,0.973,0.9733,0.9745,0.9741,0.9749,0.9755,0.9759,0.9756,0.9767,0.9761,0.976,0.9758,0.9755,0.9806,0.9757,0.9757,0.9757,0.9757,0.9757,0,0.9656,0.9664,0.9663,0.9669,0.9669,0.9686,0.9692,0.969,0.9686,0.9693,0.9693,0.9691,0.9691,0.9704,0.9705,0.97,0.9708,0.97,0.9701,0.9702,0.9745,0.9748,0.9694,0.9694,0.9694,0.9694,0.9694,0.9694,0.9626,0.9616,0.9626,0.9619,0.9627,0.9624,0.9626,0.963,0.9635,0.9632,0.9632,0.9641,0.9651,0.9653,0.9654,0.9658,0.9657,0.9646,0.9653,0.9692,0.9699,0.9705,0.9708,0.9646,0.9646,0.961,0.961,0.9609]}]]